Zurück zum Katalog

THORAD AGENA D DEB

AktivSSO
NORAD 4685·DEBRIS·🇺🇸 United States

Gestartet Apr 8, 1970 von Vandenberg Space Force Base

Loading…

Nächste Überflüge (nächste 24 Stunden)

TLE

AktuellSource: Space-Track

Epoche: Sep 14, 2026, 05:08 UTC

1 04685U 70025BJ  26257.21424470  .00000200  00000-0  34471-3 0  9997
2 04685  99.9252 342.7977 0053839  68.1563 319.3508 13.56648748781587

Verfolge THORAD AGENA D DEB in Echtzeit mit AllMySat

Download on the App Store